McAlester, OK

6:29 AM CST on November 15, 2019 (GMT -0600)
McAlester Regional

Weather History for KMLC - August, 2019

Change the Weather History Date:

Wednesday, August 14, 2019

  Actual Average Record
Temperature  
Mean Temperature 84 °F -  
Max Temperature 96 °F 92 °F 108 °F (1956)
Min Temperature 73 °F 70 °F 54 °F (1967)
Cooling Degree Days 19    
Growing Degree Days 34 (Base 50)    
Moisture  
Dew Point 72 °F    
Average Humidity 71    
Maximum Humidity 94    
Minimum Humidity 40    
Precipitation  
Precipitation 0.00 in - - ()
Sea Level Pressure  
Sea Level Pressure 29.99 in    
Wind  
Wind Speed 4 mph (NNE)    
Max Wind Speed 9 mph    
Max Gust Speed -    
Visibility 9 miles    
Events Thunderstorm    
Averages and records for this station are not official NWS values.
T = Trace of Precipitation, MM = Missing Value Source: NWS Daily Summary

Daily Weather History Graph

Daily Weather History Graph

Search for Another Location

Airport or City:

Astronomy

Aug. 14, 2019 Rise Set
Actual Time 6:42 AM CDT 8:12 PM CDT
Civil Twilight 6:15 AM CDT 8:39 PM CDT
Nautical Twilight 5:43 AM CDT 9:11 PM CDT
Astronomical Twilight 5:09 AM CDT 9:45 PM CDT
Moon 8:04 PM CDT (8/14) 5:44 AM CDT (8/14)
Length of Visible Light 14h 23m
Length of Day
13h 30m
Waxing Gibbous, 99% of the Moon is Illuminated
Aug 14
Waxing Gibbous
Aug 15
Full
Aug 23
Last Quarter
Aug 30
New
Sep 5
First Quarter

Hourly Weather History & Observations

Time (CDT) Temp. Heat Index Dew Point Humidity Pressure Visibility Wind Dir Wind Speed Gust Speed Precip Events Conditions
12:53 AM 81.0 °F 87.3 °F 75.9 °F 85% 29.97 in 10.0 mi NE 4.6 mph - N/A   Clear
1:53 AM 80.1 °F 85.4 °F 75.9 °F 87% 29.97 in 10.0 mi NE 5.8 mph - N/A   Clear
2:53 AM 80.1 °F 85.4 °F 75.9 °F 87% 29.98 in 10.0 mi Calm Calm - N/A   Clear
3:09 AM 80.1 °F 85.4 °F 75.9 °F 87% 30.01 in 10.0 mi Calm Calm - N/A Thunderstorm Clear
3:24 AM 79.0 °F - 75.9 °F 90% 30.00 in 10.0 mi NE 3.5 mph - N/A   Clear
3:53 AM 79.0 °F - 75.0 °F 88% 29.96 in 10.0 mi NNE 5.8 mph - N/A   Clear
4:53 AM 78.1 °F - 73.9 °F 87% 29.97 in 10.0 mi North 5.8 mph - N/A   Scattered Clouds
5:53 AM 75.0 °F - 73.0 °F 94% 29.99 in 9.0 mi WSW 3.5 mph - N/A   Scattered Clouds
6:53 AM 73.9 °F - 72.0 °F 93% 29.99 in 4.0 mi Calm Calm - N/A   Clear
7:10 AM 73.9 °F - 72.0 °F 93% 30.03 in 1.8 mi Calm Calm - N/A   Clear
7:17 AM 73.9 °F - 72.0 °F 93% 30.03 in 3.0 mi Calm Calm - N/A   Clear
7:28 AM 75.9 °F - 73.9 °F 94% 30.03 in 2.5 mi Calm Calm - N/A   Clear
7:36 AM 77.0 °F - 73.9 °F 90% 30.04 in 9.0 mi North 3.5 mph - N/A   Clear
7:53 AM 77.0 °F - 73.9 °F 90% 30.01 in 10.0 mi NNW 3.5 mph - N/A   Clear
8:53 AM 82.0 °F 87.4 °F 73.0 °F 74% 30.02 in 10.0 mi Calm Calm - N/A   Clear
9:53 AM 84.9 °F 92.1 °F 73.9 °F 69% 30.03 in 10.0 mi Variable 4.6 mph - N/A   Clear
10:53 AM 87.1 °F 94.5 °F 73.0 °F 63% 30.03 in 10.0 mi Variable 4.6 mph - N/A   Clear
11:53 AM 90.0 °F 96.9 °F 72.0 °F 55% 30.04 in 10.0 mi North - - N/A   Scattered Clouds
12:53 PM 91.9 °F 97.4 °F 70.0 °F 48% 30.02 in 10.0 mi North 8.1 mph - N/A   Partly Cloudy
1:53 PM 93.9 °F 99.1 °F 69.1 °F 44% 29.99 in 10.0 mi NNE 8.1 mph - N/A   Clear
2:53 PM 93.9 °F 97.0 °F 66.0 °F 40% 29.98 in 10.0 mi NNW 5.8 mph - N/A   Scattered Clouds
3:53 PM 95.0 °F 99.0 °F 66.9 °F 40% 29.94 in 10.0 mi ENE 6.9 mph - N/A   Partly Cloudy
4:53 PM 95.0 °F 99.0 °F 66.9 °F 40% 29.93 in 10.0 mi NNE 9.2 mph - N/A   Clear
5:53 PM 95.0 °F 99.0 °F 66.9 °F 40% 29.93 in 10.0 mi North 8.1 mph - N/A   Clear
6:53 PM 93.0 °F 97.4 °F 68.0 °F 44% 29.94 in 10.0 mi North 8.1 mph - N/A   Clear
7:53 PM 89.1 °F 94.1 °F 70.0 °F 53% 29.95 in 10.0 mi North 8.1 mph - N/A   Clear
8:53 PM 87.1 °F 92.8 °F 71.1 °F 59% 29.96 in 10.0 mi NNE 4.6 mph - N/A   Clear
9:53 PM 84.9 °F 89.4 °F 70.0 °F 61% 30.00 in 10.0 mi NNE 4.6 mph - N/A   Clear
10:53 PM 81.0 °F 84.4 °F 70.0 °F 69% 30.02 in 10.0 mi Calm Calm - N/A   Clear
11:53 PM 80.1 °F 83.6 °F 71.1 °F 74% 30.03 in 10.0 mi Calm Calm - N/A   Scattered Clouds